Météo par heure à Ababuj

Ce jour, 14 Avril, Mercredi

Heure Température Précipitation Vent Pression Humidité
00:00 +7°C° 0 mm 0 m/s 648 mmHg 88%
01:00 +7°C° 0 mm 0 m/s 648 mmHg 89%
02:00 +7°C° 0 mm 0 m/s 648 mmHg 89%
03:00 +7°C° 0 mm 0 m/s 647 mmHg 90%
04:00 +7°C° 0.1 mm 0 m/s 647 mmHg 90%
05:00 +7°C° 0.1 mm 0 m/s 647 mmHg 91%
06:00 +7°C° 0 mm 0 m/s 647 mmHg 91%
07:00 +8°C° 0.1 mm 1 m/s 647 mmHg 88%
08:00 +9°C° 0.1 mm 1 m/s 647 mmHg 86%
09:00 +9°C° 0.1 mm 1 m/s 647 mmHg 83%
10:00 +10°C° 0.2 mm 1 m/s 647 mmHg 78%
11:00 +10°C° 0.2 mm 2 m/s 647 mmHg 73%
12:00 +12°C° 0 mm 2 m/s 647 mmHg 69%
13:00 +10°C° 0.2 mm 2 m/s 647 mmHg 71%
14:00 +10°C° 0.2 mm 2 m/s 647 mmHg 73%
15:00 +9°C° 0.2 mm 2 m/s 646 mmHg 75%
16:00 +9°C° 0.2 mm 2 m/s 646 mmHg 78%
17:00 +8°C° 0.2 mm 2 m/s 646 mmHg 80%
18:00 +8°C° 0.2 mm 2 m/s 646 mmHg 82%
19:00 +8°C° 0 mm 1 m/s 646 mmHg 84%
20:00 +8°C° 0 mm 1 m/s 646 mmHg 85%
21:00 +8°C° 0 mm 1 m/s 646 mmHg 86%
22:00 +8°C° 0.1 mm 1 m/s 646 mmHg 86%
23:00 +7°C° 0.1 mm 1 m/s 646 mmHg 86%

Demain, 15 Avril, Jeudi

Heure Température Précipitation Vent Pression Humidité
00:00 +7°C° 0.1 mm 1 m/s 646 mmHg 86%
01:00 +7°C° 0 mm 1 m/s 646 mmHg 84%
02:00 +6°C° 0 mm 1 m/s 646 mmHg 83%
03:00 +6°C° 0 mm 1 m/s 646 mmHg 81%
04:00 +6°C° 0 mm 1 m/s 646 mmHg 80%
05:00 +5°C° 0 mm 1 m/s 645 mmHg 80%
06:00 +5°C° 0 mm 1 m/s 645 mmHg 79%
07:00 +6°C° 0 mm 1 m/s 646 mmHg 79%
08:00 +5°C° 0 mm 2 m/s 646 mmHg 78%
09:00 +6°C° 0 mm 2 m/s 646 mmHg 78%
10:00 +6°C° 0 mm 2 m/s 646 mmHg 77%
11:00 +7°C° 0 mm 2 m/s 646 mmHg 76%
12:00 +7°C° 0 mm 2 m/s 645 mmHg 75%
13:00 +7°C° 0 mm 2 m/s 645 mmHg 76%
14:00 +7°C° 0 mm 3 m/s 645 mmHg 78%
15:00 +5°C° 0 mm 3 m/s 645 mmHg 79%
16:00 +6°C° 0.1 mm 2 m/s 645 mmHg 80%
17:00 +6°C° 0.1 mm 2 m/s 645 mmHg 81%
18:00 +6°C° 0.1 mm 1 m/s 645 mmHg 81%
19:00 +6°C° 0 mm 1 m/s 645 mmHg 81%
20:00 +5°C° 0 mm 1 m/s 645 mmHg 81%
21:00 +4°C° 0 mm 2 m/s 645 mmHg 81%
22:00 +3°C° 0 mm 2 m/s 645 mmHg 80%
23:00 +2°C° 0 mm 2 m/s 645 mmHg 79%

Après-demain, 16 Avril, Vendredi

Heure Température Précipitation Vent Pression Humidité
00:00 +1°C° 0 mm 2 m/s 645 mmHg 78%
01:00 +1°C° 0 mm 2 m/s 644 mmHg 75%
02:00 -1°C° 0 mm 2 m/s 644 mmHg 73%
03:00 -1°C° 0 mm 2 m/s 644 mmHg 71%
04:00 -2°C° 0 mm 2 m/s 644 mmHg 71%
05:00 -2°C° 0 mm 2 m/s 644 mmHg 71%
06:00 -2°C° 0 mm 2 m/s 644 mmHg 71%
07:00 -1°C° 0 mm 3 m/s 645 mmHg 63%
08:00 0°C° 0 mm 4 m/s 645 mmHg 55%
09:00 +2°C° 0 mm 6 m/s 645 mmHg 47%
10:00 +3°C° 0 mm 6 m/s 645 mmHg 43%
11:00 +4°C° 0 mm 7 m/s 645 mmHg 40%
12:00 +5°C° 0 mm 7 m/s 645 mmHg 36%
13:00 +5°C° 0 mm 8 m/s 645 mmHg 36%
14:00 +5°C° 0 mm 9 m/s 644 mmHg 36%
15:00 +5°C° 0 mm 9 m/s 644 mmHg 36%
16:00 +2°C° 0 mm 10 m/s 644 mmHg 39%
17:00 +1°C° 0 mm 10 m/s 644 mmHg 41%
18:00 0°C° 0 mm 10 m/s 645 mmHg 44%
19:00 -3°C° 0.1 mm 10 m/s 645 mmHg 55%
20:00 -4°C° 0.1 mm 9 m/s 645 mmHg 66%
21:00 -5°C° 0.1 mm 9 m/s 645 mmHg 77%
22:00 -5°C° 0.1 mm 8 m/s 645 mmHg 80%
23:00 -6°C° 0.1 mm 8 m/s 645 mmHg 82%

17 Avril, Samedi

Heure Température Précipitation Vent Pression Humidité
00:00 -6°C° 0.1 mm 7 m/s 645 mmHg 85%
01:00 -6°C° 0 mm 7 m/s 645 mmHg 83%
02:00 -6°C° 0 mm 7 m/s 644 mmHg 82%
03:00 -6°C° 0 mm 7 m/s 644 mmHg 80%
04:00 -7°C° 0 mm 7 m/s 644 mmHg 80%
05:00 -7°C° 0 mm 7 m/s 644 mmHg 79%
06:00 -7°C° 0 mm 8 m/s 644 mmHg 79%
07:00 -6°C° 0 mm 8 m/s 644 mmHg 74%
08:00 -5°C° 0 mm 9 m/s 645 mmHg 68%
09:00 -4°C° 0 mm 10 m/s 645 mmHg 63%
10:00 -1°C° 0.1 mm 9 m/s 645 mmHg 54%
11:00 0°C° 0.1 mm 9 m/s 645 mmHg 46%
12:00 +1°C° 0.1 mm 9 m/s 646 mmHg 37%
13:00 +2°C° 0 mm 9 m/s 646 mmHg 37%
14:00 +2°C° 0 mm 9 m/s 646 mmHg 36%
15:00 +3°C° 0 mm 9 m/s 646 mmHg 36%
16:00 +2°C° 0 mm 9 m/s 646 mmHg 40%
17:00 +2°C° 0 mm 9 m/s 646 mmHg 44%
18:00 +1°C° 0 mm 8 m/s 646 mmHg 48%
19:00 0°C° 0 mm 7 m/s 646 mmHg 53%
20:00 -2°C° 0 mm 6 m/s 647 mmHg 58%
21:00 -2°C° 0 mm 5 m/s 647 mmHg 62%
22:00 -2°C° 0 mm 5 m/s 647 mmHg 65%
23:00 -3°C° 0 mm 4 m/s 647 mmHg 67%

18 Avril, Dimanche

Heure Température Précipitation Vent Pression Humidité
00:00 -3°C° 0 mm 4 m/s 647 mmHg 70%
01:00 -3°C° 0 mm 4 m/s 647 mmHg 72%
02:00 -3°C° 0 mm 4 m/s 646 mmHg 74%
03:00 -3°C° 0 mm 4 m/s 646 mmHg 76%
04:00 -3°C° 0 mm 4 m/s 646 mmHg 77%
05:00 -4°C° 0 mm 3 m/s 646 mmHg 78%
06:00 -4°C° 0 mm 3 m/s 647 mmHg 79%
07:00 0°C° 0 mm 3 m/s 647 mmHg 69%
08:00 +1°C° 0 mm 4 m/s 647 mmHg 59%
09:00 +3°C° 0 mm 5 m/s 648 mmHg 49%
10:00 +6°C° 0 mm 5 m/s 648 mmHg 45%
11:00 +7°C° 0 mm 6 m/s 648 mmHg 40%
12:00 +9°C° 0 mm 6 m/s 648 mmHg 35%
13:00 +10°C° 0 mm 6 m/s 648 mmHg 33%
14:00 +12°C° 0 mm 5 m/s 648 mmHg 30%
15:00 +13°C° 0 mm 5 m/s 648 mmHg 27%
16:00 +12°C° 0 mm 4 m/s 648 mmHg 31%
17:00 +11°C° 0 mm 3 m/s 648 mmHg 35%
18:00 +10°C° 0 mm 2 m/s 648 mmHg 39%
19:00 +9°C° 0 mm 2 m/s 648 mmHg 43%
20:00 +8°C° 0 mm 1 m/s 647 mmHg 47%
21:00 +7°C° 0 mm 1 m/s 647 mmHg 50%
22:00 +7°C° 0 mm 1 m/s 647 mmHg 50%
23:00 +7°C° 0 mm 1 m/s 647 mmHg 49%

19 Avril, Lundi

Heure Température Précipitation Vent Pression Humidité
00:00 +7°C° 0 mm 1 m/s 647 mmHg 49%
01:00 +7°C° 0 mm 1 m/s 646 mmHg 49%
02:00 +7°C° 0 mm 1 m/s 646 mmHg 49%
03:00 +7°C° 0 mm 1 m/s 646 mmHg 50%
04:00 +7°C° 0 mm 1 m/s 645 mmHg 51%
05:00 +7°C° 0 mm 1 m/s 645 mmHg 53%
06:00 +7°C° 0 mm 1 m/s 645 mmHg 54%
07:00 +8°C° 0 mm 1 m/s 645 mmHg 53%
08:00 +7°C° 0 mm 2 m/s 645 mmHg 51%
09:00 +8°C° 0 mm 2 m/s 646 mmHg 50%
10:00 +9°C° 0 mm 3 m/s 645 mmHg 51%
11:00 +8°C° 0 mm 4 m/s 645 mmHg 52%
12:00 +9°C° 0 mm 5 m/s 645 mmHg 54%
13:00 +8°C° 0.2 mm 5 m/s 644 mmHg 63%
14:00 +6°C° 0.2 mm 5 m/s 644 mmHg 72%
15:00 +5°C° 0.2 mm 5 m/s 643 mmHg 82%
16:00 +5°C° 0.1 mm 5 m/s 643 mmHg 84%
17:00 +3°C° 0.1 mm 5 m/s 643 mmHg 86%
18:00 +3°C° 0.1 mm 5 m/s 643 mmHg 89%
19:00 +3°C° 0.1 mm 5 m/s 644 mmHg 87%
20:00 +3°C° 0.1 mm 6 m/s 644 mmHg 86%
21:00 +3°C° 0.1 mm 6 m/s 644 mmHg 85%
22:00 +3°C° 0 mm 6 m/s 644 mmHg 85%
23:00 +3°C° 0 mm 5 m/s 644 mmHg 86%
Voir plus

Nous avons besoin de votre consentement

Meteoprog et ses fournisseurs de services peuvent stocker et accéder à des données personnelles telles que des cookies, des identifiants d'appareils ou d'autres technologies similaires sur votre appareil et traiter ces données pour personnaliser le contenu et les publicités, ainsi que pour fournir des fonctionnalités de médias sociaux et analyser le trafic.

  • Stocker et/ou accéder à des informations sur votre appareil

    Des cookies, des identifiants d'appareils ou d'autres informations peuvent être stockés ou accessibles sur votre appareil aux fins indiquées ci-dessus.

  • Annonces et contenus personnalisés, mesure des annonces et des contenus, connaissance de l'audience et développement de produits

    Les annonces et le contenu peuvent être personnalisés en fonction d'un profil. D'autres données peuvent être ajoutées pour mieux personnaliser les annonces et le contenu. Les performances des publicités et du contenu peuvent être mesurées. Il est possible d'obtenir des informations sur le public qui a vu les publicités et le contenu. Ces données peuvent être utilisées pour développer ou améliorer l'expérience de l'utilisateur, les systèmes et les logiciels.

En cliquant sur "J'accepte", vous autorisez l'utilisation de cookies, des identifiants d'appareils, des balises web ou d'autres technologies similaires. Vos paramètres peuvent être modifiés dans le navigateur de votre appareil.

Dans certains cas, des intérêts légitimes peuvent être invoqués plutôt qu'un consentement. Vous pouvez en savoir plus à ce sujet dans notre Politique de confidentialité et de cookies.